Location: Castelbiague
(43.0361°N, 0.9246°E)
Time: 10:06:49
(UTC+00:00)

Cosmos 1346 Rocket - Pass Details

Date: 17 June 2021
Orbit: 526 x 551 km, 81.2° (Epoch: 04 August)

Event Time Altitude Azimuth Distance (km) Brightness Sun altitude
Exits shadow 22:10:25 39° 106° (ESE) 828 3.4 -19.1°
Maximum altitude 22:10:42 39° 94° (E) 820 3.4 -19.2°
Drops below altitude 10° 22:14:28 10° 25° (NNE) 1,826 6.0 -19.5°
Sets 22:16:44 0° 18° (NNE) 2,728 7.1 -19.6°
